Regional Weather Roundup
Issued by NWS Grand Forks, ND

Home | Current Version | Previous Version | Graphics & Text | Print | Product List | Glossary On
Versions: 1 2 3 4 5 6 7 8 9 10 11 12 13 14 15 16 17 18 19 20 21 22 23 24 25 26 27 28 29 30 31 32 33 34 35 36 37 38 39 40 41 42 43 44 45 46 47 48 49 50
000
ASUS43 KFGF 020310
RWRFGF
PRAIRIE TO PINES  WEATHER ROUNDUP
NATIONAL WEATHER SERVICE EASTERN NORTH DAKOTA/GRAND FORKS ND
1000 PM CDT WED OCT 01 2014

 **SATELLITE DATA USED TO AUGMENT SKY COVER AT AUTOMATED STATIONS**
 *****  WEATHER ACROSS EASTERN NORTH DAKOTA  *****

CITY           SKY/WX    TMP DP  RH WIND       PRES   REMARKS
GRAND FORKS    CLOUDY    59  51  75 W6        29.73R
GRAND FRKS AFB CLOUDY    59  53  80 W8        29.74R
GRAND FRKS NWS   N/A     57 N/A N/A W9          N/A
DEVILS LAKE    CLOUDY    55  45  67 W14       29.75R
FARGO          CLOUDY    61  51  70 SW12      29.77R
WAHPETON ARPT  MOCLDY    54  46  76 W7        29.81R
$$

 ***** WEATHER ACROSS CENTRAL AND WESTERN NORTH DAKOTA  *****

CITY           SKY/WX    TMP DP  RH WIND       PRES   REMARKS
BISMARCK       CLOUDY    57  49  74 NW6       29.85R
MINOT          PTCLDY    48  44  86 SW7       29.79S
JAMESTOWN      PTCLDY    55  49  80 W10       29.80R
MINOT AFB      PTCLDY    48  47  99 W7        29.78S
GARRISON         N/A     51  46  83 W8        29.82S
WILLISTON      MOCLDY    50  43  77 W8        29.85R
DICKINSON      CLOUDY    50  44  80 W9        29.88R
HETTINGER      MOCLDY    46  42  86 W3        29.92R
$$

 *****  OTHER AIRPORT OBSERVATIONS IN OUR AREA  *****

CITY           SKY/WX    TMP DP  RH WIND       PRES   REMARKS
WALHALLA         N/A     57  50  77 W10       29.71R
GRAFTON AIRPOR CLOUDY    57  52  82 W8        29.72R
VALLEY CITY AR CLOUDY    55  55 100 W8        29.80R
CANDO          FAIR      50  46  87 W10G16    29.76R
CAVALIER APRT  CLOUDY    57  50  77 W6        29.71R
GWINNER        CLOUDY    57  50  77 W6        29.82S
SHEYENNE NWR     N/A     55  50  83 W5        29.95S
ROLLA          MOCLDY    50  46  87 W8        29.77R
 ***** THE ABOVE OBSERVATIONS ARE NON NWS ARE NOT QUALITY
       CONTROLLED AND MAY MIS-REPORT RAIN FOR SNOW...
$$

  *****  WEATHER ACROSS NORTHERN MINNESOTA  *****

CITY           SKY/WX    TMP DP  RH WIND       PRES   REMARKS
FLAG ISLAND    CLOUDY    57  54  88 SW12      29.65R
WARROAD        CLOUDY    59  54  82 SW6       29.69R
ROSEAU         CLOUDY    59  52  77 SW8       29.69R
HALLOCK        CLOUDY    57  52  82 W9        29.70R
THF RVR FALLS  CLOUDY    57  52  82 SW8       29.73R
BAUDETTE       CLOUDY    57  54  89 S10       29.69R
WASKISH        DRIZZLE   57  54  88 CALM      29.73R
CROOKSTON      CLOUDY    59  52  77 W8        29.74R
STEPHEN NDAWN    N/A     57  52  82 W6          N/A
GREENBUSH NDAW   N/A     57  52  82 W12         N/A
$$
  *****  WEATHER ACROSS CENTRAL AND WEST MINNESOTA  *****

CITY           SKY/WX    TMP DP  RH WIND       PRES   REMARKS
FOSSTON        CLOUDY    57  54  88 SW7       29.76R
BEMIDJI        CLOUDY    56  54  91 S7        29.76R
PARK RAPIDS    CLOUDY    54  53  97 W6        29.78R
ELBOW LAKE     FAIR      53  48  84 W6        29.81R
WADENA         PTCLDY    52  50  93 W3        29.80R
DETROIT LAKES  CLOUDY    59  50  72 SW5       29.79S
MOORHEAD       NOT AVBL
FERGUS FALLS   PTCLDY    57  46  67 CALM      29.81R
MORRIS MN      PTCLDY    54  48  82 NW7       29.81R
STAPLES        CLOUDY    54  52  94 S5        29.81R
$$
  *****  WEATHER ELSEWHERE ACROSS MINNESOTA  *****

CITY           SKY/WX    TMP DP  RH WIND       PRES   REMARKS
DULUTH         FOG       51  49  92 S8        29.82R VSB 1/2
INTRNTL FALLS  CLOUDY    53  51  93 S8        29.73R
ELY            CLOUDY    48  46  93 S6        29.80R
CLOQUET        CLOUDY    52  50  93 S8        29.82R FOG
WHEATON        CLEAR     54  48  82 SW3       29.84R
BRAINERD       CLOUDY    53  53 100 S6        29.81R FOG
HIBBING        CLOUDY    51  49  92 SW3       29.80S FOG
ALEXANDRIA     PTCLDY    56  50  80 W3        29.82R
SAINT CLOUD    CLOUDY    58  55  90 S6        29.82R
MINNEAPOLIS    CLOUDY    58  56  93 SE5       29.83R FOG
$$

  *****  WEATHER ACROSS SOUTH DAKOTA  *****

CITY           SKY/WX    TMP DP  RH WIND       PRES   REMARKS
SIOUX FALLS    PTCLDY    58  53  84 CALM      29.81S
BROOKINGS      NOT AVBL
WATERTOWN      CLEAR     51  46  83 N5        29.85R
HURON          PTCLDY    53  47  79 N5        29.85R
SISSETON         N/A     53  48  83 NW6       29.81R
ABERDEEN       PTCLDY    54  47  77 W8        29.84R
MITCHELL       CLEAR     60  48  64 N12       29.85R
PIERRE         CLOUDY    56  46  69 NW7       29.89R
MOBRIDGE       MOCLDY    52  47  83 NW7       29.86R
RAPID CITY     CLOUDY    49  43  80 W5        29.97R
$$

  *****  SOME WEATHER IN NEARBY STATES *****

CITY           SKY/WX    TMP DP  RH WIND       PRES   REMARKS
GLASGOW MT     CLEAR     48  35  60 SW3       29.85S
GREAT FALLS MT CLEAR     45  31  58 SW14      29.91S
CHEYENNE WY    PTCLDY    39  37  92 N6        30.05R
SCOTTSBLUFF NE CLOUDY    48  45  89 NW5       30.01R
OMAHA NE       MOCLDY    66  61  84 E3        29.78S
DES MOINES IA  PTCLDY    66  63  90 SE3       29.81R FOG
DAVENPORT IA   NOT AVBL
CHICAGO IL     CLOUDY    65  53  65 SE10      29.91R
EAU CLAIRE WI  CLOUDY    56  54  93 CALM      29.84S FOG
LA CROSSE WI   CLOUDY    62  58  86 NW5       29.84R
$$

  *****  SOME NATIONAL WEATHER *****

CITY           SKY/WX    TMP DP  RH WIND       PRES   REMARKS
LA GUARDIA NY  CLOUDY    62  56  80 NE13      30.08R
RALEIGH NC     PTCLDY    63  61  93 CALM      30.05R
ATLANTA GA     PTCLDY    72  60  66 CALM      30.03R
NEW ORLEANS LA PTCLDY    79  75  87 SE7       29.94R
OKLAHOMA CITY  PTCLDY    80  65  59 SE16G23   29.73R
ALBUQUERQUE NM MOCLDY    70  29  21 NW12      29.95R
SALT LAKE CITY PTCLDY    47  38  71 S7        30.18R
LOS ANGELES CA PTCLDY    67  63  87 W8        29.83R
BOISE ID       CLEAR     55  34  45 CALM      30.15R
SEATTLE WA     MOCLDY    58  49  72 NW3       30.18S
$$

*** WEATHER ACROSS MANITOBA...SASKATCHEWAN AND ONTARIO ***
                ***ONTARIO***

CITY           SKY/WX    TMP DP  RH WIND       PRES   REMARKS
GERALDTON      CLOUDY    54  48  82 S15       29.81F
THUNDER BAY    NOT AVBL
SIOUX LOOKOUT  LGT RAIN  52  50  93 S10G17    29.67S
TORONTO        CLOUDY    61  57  88 E2        30.10S
BIG TROUT LK   CLOUDY    54  48  82 S13G21    29.51F
PICKLE LAKE    NOT AVBL
DRYDEN         CLOUDY    54  52  94 S16G23    29.66S
KENORA         LGT RAIN  55  55 100 SW12      29.64R
$$
                *** MANITOBA***

CITY           SKY/WX    TMP DP  RH WIND       PRES   REMARKS
BRANDON        MOCLDY    50  46  87 W10       29.71R
DAUPHIN        CLEAR     48  45  87 W7        29.65R
ISLAND LAKE    CLOUDY    55  52  88 S13G20    29.37R
PILOT MOUND      N/A     52  46  82 W10         N/A
THE PAS        CLOUDY    46  43  87 W17       29.56R
THOMPSON       DRIZZLE   48  48 100 W10       29.33S
WINNIPEG       MOCLDY    57  50  77 W16       29.65R
LYNN LAKE      LGT RAIN  45  43  93 NW16      29.45R FOG
CHURCHILL      LGT RAIN  41  41 100 E9        29.33F FOG
GILLAM         LGT RAIN  50  50 100 CALM      29.26F VSB 1/2
$$
                ***SASKATCHEWAN***

CITY           SKY/WX    TMP DP  RH WIND       PRES   REMARKS
ESTEVAN        MOCLDY    48  45  87 W9        29.79S
KINDERSLEY     MOCLDY    46  34  61 SE3       29.74F
LLOYDMINSTER   MOCLDY    45  36  70 W15       29.74S
PRINCE ALBERT  PTCLDY    39  36  87 W3        29.66R
REGINA         PTCLDY    41  39  93 W9        29.77R
YORKTON        CLEAR     45  41  87 W9        29.69R
N. BATTLEFORD  CLOUDY    50  34  53 W17G28    29.75R
LA RONGE       PTCLDY    34  30  86 CALM      29.63S
SASKATOON      PTCLDY    39  32  75 W8        29.73S
SWIFT CURRENT  CLOUDY    46  36  66 S6        29.78F
$$
NOTE: THESE ARE AUTOMATED STATIONS WITH LIMITED QUALITY CONTROL
      "FAIR" INDICATES FEW OR NO CLOUDS BELOW 12,000 FEET WITH NO
      SIGNIFICANT WEATHER AND/OR OBSTRUCTIONS TO VISIBILITY.
      SKY/WX - SKY CONDITION AND SIGNIFICANT WEATHER.
      TMP - AIR TEMPERATURE.    DP   - DEWPOINT TEMPERATURE.
      RH  - RELATIVE HUMIDITY.  PRES - PRESSURE.
      HX  - HEAT INDEX.         WCI  - WIND CHILL INDEX.
$


USA.gov is the U.S. government's official web portal to all federal, state and local government web resources and services.